Location: Chisholm
(54.9102°N, 114.1701°W)
Time: 11:00:58
(UTC+00:00)

N. Korean satellite - Pass Details

Date: 01 December 2021
Orbit: 447 x 491 km, 97.3° (Epoch: 25 January)

Event Time Altitude Azimuth Distance (km) Brightness Sun altitude
Rises 01:15:45 0° 217° (SW) 2,539 11.1 -16.3°
Reaches altitude 10° 01:19:05 10° 252° (WSW) 1,654 10.6 -16.8°
Maximum altitude 01:20:23 12° 273° (W) 1,554 10.2 -17.0°
Drops below altitude 10° 01:21:40 10° 295° (WNW) 1,649 10.0 -17.1°
Sets 01:24:59 0° 329° (NNW) 2,521 10.4 -17.6°
